Content
SEND FEEDBACK

Daily
Averages
Monthly
Summary
United States of America

RIMROCK, ARIZONA


Home > North America > United States > Arizona
Elevation: 3830 feet     Latitude: 34 40N     Longitude: 111 43W

WEATHER
 
SELECT A DAY
Number of Records: 130,443;   Date Range: 1/4/95 - 8/12/14
 
SHARE

PRINT THIS DATA

[ ← Previous Day ]
WEATHER ALMANAC - MARCH 7, 2014
[ Next Day → ]
[ °C ]   °F
Weather ElementAverageHighLow
Temperature56.2 °F68 °F (1:55 pm)46.4 °F (6:55 am)
Dewpoint25.4 °F33.8 °F (12:15 pm)14 °F (5:35 pm)
Humidity32.6 %50 % (6:55 am)15 % (3:15 pm)
Barometer29.96 in30.03 in (11:15 pm)29.90 in (3:15 pm)
Wind Speed7 mph18.4 mph (3:55 pm)
Wind Gust25.3 mph (3:35 pm)
Weather ElementAverage
Visibility10 mi
Wind DirectionESE (112.5 °)

Weather ElementTotal
Precipitation---
Heating Degree Days7.8 (Base 65)
Growing Degree Days7.2 (Base 50)
Averaged from 71 records on March 7, 2014
WEATHER CONDITIONS BREAKOUT
WIND DIRECTION BREAKOUT
WEATHER BY HOUR - MARCH 7, 2014
[ °C ]   °F
Local TimeTemperatureDewpointHumidityBarometerVisibilityWind DirectionWind SpeedGust SpeedPrecipitationEventsConditions
12:35 AM50.0 °F28.4 °F43 %30.00 in10.0 miNE (50°)3.5 mphClear
12:55 AM50.0 °F28.4 °F43 %29.99 in10.0 miNE (50°)4.6 mphClear
1:15 AM50.0 °F28.4 °F43 %29.99 in10.0 miNE (40°)3.5 mphClear
1:35 AM50.0 °F28.4 °F43 %29.98 in10.0 miCalmClear
1:55 AM50.0 °F28.4 °F43 %29.99 in10.0 miNE (40°)4.6 mphClear
2:15 AM50.0 °F28.4 °F43 %29.98 in10.0 miNE (40°)5.8 mphClear
2:35 AM48.2 °F28.4 °F46 %29.97 in10.0 miNNE (30°)3.5 mphClear
2:55 AM50.0 °F28.4 °F43 %29.96 in10.0 miNNE (30°)4.6 mphClear
3:15 AM50.0 °F28.4 °F43 %29.95 in10.0 miCalmClear
3:35 AM48.2 °F28.4 °F46 %29.95 in10.0 miNNE (30°)5.8 mphClear
3:55 AM48.2 °F28.4 °F46 %29.95 in10.0 miCalmClear
4:15 AM48.2 °F28.4 °F46 %29.94 in10.0 miNE (40°)4.6 mphClear
4:35 AM48.2 °F28.4 °F46 %29.94 in10.0 miNNE (30°)4.6 mphClear
4:55 AM50.0 °F28.4 °F43 %29.95 in10.0 miCalmClear
5:15 AM50.0 °F28.4 °F43 %29.95 in10.0 miNNE (30°)3.5 mphClear
5:35 AM50.0 °F28.4 °F43 %29.95 in10.0 miCalmClear
5:55 AM50.0 °F28.4 °F43 %29.96 in10.0 miCalmClear
6:15 AM50.0 °F28.4 °F43 %29.95 in10.0 miCalmClear
6:35 AM50.0 °F28.4 °F43 %29.95 in10.0 miNE (40°)3.5 mphClear
6:55 AM46.4 °F28.4 °F50 %29.96 in10.0 miCalmClear
7:15 AM46.4 °F28.4 °F50 %29.97 in10.0 miNE (40°)4.6 mphClear
7:35 AM50.0 °F30.2 °F47 %29.97 in10.0 miENE (60°)3.5 mphClear
7:55 AM50.0 °F30.2 °F47 %29.98 in10.0 miEast (80°)4.6 mphClear
8:10 AM51.8 °F30.2 °F44 %29.98 in10.0 miEast (90°)4.6 mphClear
8:35 AM53.6 °F30.2 °F41 %29.99 in10.0 miNNE (30°)3.5 mphClear
8:55 AM55.4 °F32.0 °F41 %30.00 in10.0 miCalmScattered Clouds
9:15 AM55.4 °F30.2 °F38 %30.00 in10.0 miCalmScattered Clouds
9:35 AM59.0 °F32.0 °F36 %29.99 in10.0 miSE (140°)6.9 mphClear
9:55 AM59.0 °F30.2 °F34 %29.99 in10.0 miSouth (180°)3.5 mphClear
10:15 AM59.0 °F32.0 °F36 %29.99 in10.0 miSouth (190°)5.8 mphClear
10:35 AM60.8 °F32.0 °F34 %29.99 in10.0 miSouth (190°)3.5 mphClear
10:55 AM62.6 °F32.0 °F32 %29.99 in10.0 miSouth (180°)5.8 mphClear
11:15 AM62.6 °F32.0 °F32 %29.99 in10.0 miSouth (180°)5.8 mphClear
11:35 AM64.4 °F32.0 °F30 %29.99 in10.0 miSouth (180°)8.1 mphClear
11:55 AM64.4 °F32.0 °F30 %29.98 in10.0 miSouth (170°)5.8 mphClear
12:15 PM64.4 °F33.8 °F32 %29.97 in10.0 miSSE (160°)9.2 mphThunderstormClear
12:35 PM64.4 °F32.0 °F30 %29.96 in10.0 miSSW (200°)6.9 mphClear
12:50 PM62.6 °F32.0 °F32 %29.96 in10.0 miSW (230°)5.8 mphClear
1:15 PM64.4 °F32.0 °F30 %29.95 in10.0 miSSW (200°)5.8 mphClear
1:35 PM62.6 °F32.0 °F32 %29.94 in10.0 miSouth (170°)8.1 mphThunderstormClear
1:55 PM68.0 °F32.0 °F26 %29.92 in10.0 miSouth (170°)5.8 mphClear
2:15 PM68.0 °F32.0 °F26 %29.92 in10.0 miSouth (170°)5.8 mphScattered Clouds
2:35 PM68.0 °F26.6 °F21 %29.91 in10.0 miWest (280°)12.7 mph17.3 mphScattered Clouds
2:55 PM68.0 °F19.4 °F16 %29.91 in10.0 miWest (260°)9.2 mph19.6 mphClear
3:15 PM68.0 °F17.6 °F15 %29.90 in10.0 miWSW (240°)12.7 mph21.9 mphClear
3:35 PM66.2 °F19.4 °F17 %29.90 in10.0 miWSW (250°)13.8 mph25.3 mphClear
3:55 PM68.0 °F17.6 °F15 %29.90 in10.0 miWest (280°)18.4 mph24.2 mphClear
4:15 PM66.2 °F19.4 °F17 %29.91 in10.0 miWNW (290°)13.8 mph23.0 mphClear
4:35 PM66.2 °F17.6 °F15 %29.91 in10.0 miWNW (290°)15.0 mph19.6 mphClear
4:55 PM64.4 °F17.6 °F16 %29.91 in10.0 miNW (310°)10.4 mph19.6 mphClear
5:15 PM64.4 °F15.8 °F15 %29.92 in10.0 miNNW (340°)17.3 mphScattered Clouds
5:35 PM62.6 °F14.0 °F15 %29.93 in10.0 miNNW (330°)13.8 mph17.3 mphClear
5:55 PM62.6 °F15.8 °F16 %29.93 in10.0 miNorth (350°)10.4 mphClear
6:15 PM60.8 °F14.0 °F16 %29.93 in10.0 miNorth (360°)15.0 mphClear
6:35 PM59.0 °F14.0 °F17 %29.94 in10.0 miNorth (350°)12.7 mphClear
6:55 PM59.0 °F15.8 °F19 %29.94 in10.0 miNorth (10°)12.7 mphClear
7:15 PM57.2 °F17.6 °F21 %29.95 in10.0 miNNE (30°)9.2 mphClear
7:35 PM55.4 °F19.4 °F25 %29.95 in10.0 miNNE (30°)11.5 mph17.3 mphClear
7:55 PM55.4 °F17.6 °F23 %29.96 in10.0 miNE (50°)9.2 mphClear
8:15 PM55.4 °F17.6 °F23 %29.97 in10.0 miNE (50°)9.2 mph17.3 mphClear
8:35 PM53.6 °F19.4 °F26 %29.99 in10.0 miENE (60°)10.4 mphClear
8:55 PM53.6 °F19.4 °F26 %30.00 in10.0 miNNE (30°)12.7 mphClear
9:15 PM51.8 °F19.4 °F28 %30.00 in10.0 miENE (60°)8.1 mphClear
9:35 PM51.8 °F21.2 °F30 %30.00 in10.0 miNE (40°)13.8 mphClear
9:55 PM51.8 °F21.2 °F30 %30.02 in10.0 miNE (50°)10.4 mphClear
10:15 PM51.8 °F21.2 °F30 %30.02 in10.0 miNE (40°)9.2 mphClear
10:35 PM50.0 °F21.2 °F32 %30.02 in10.0 miNNE (20°)8.1 mphClear
10:55 PM51.8 °F21.2 °F30 %30.02 in10.0 miNNE (20°)5.8 mphClear
11:15 PM50.0 °F21.2 °F32 %30.03 in10.0 miNNE (30°)8.1 mphClear
11:35 PM50.0 °F21.2 °F32 %30.03 in10.0 miNE (40°)9.2 mphClear
11:55 PM50.0 °F21.2 °F32 %30.03 in10.0 miNE (40°)11.5 mphClear
Hourly data recorded from KSEZ, located miles away from Rimrock, Arizona







STORIES FROM OUR PARTNERS